| time (UTC) | temp C | wind direction | speed KPH | gust KPH | rain 1hr cm | rain 24hr cm | rain mn cm | humidity % | barometer mb |
| 20260504035935 | 13 | 329 | 6.4 | 11.3 | 0.00 | 0.00 | 0.03 | 1005.8 | |
| 20260504035448 | 13 | 332 | 8.0 | 11.3 | 0.00 | 0.00 | 0.03 | 1005.8 | |
| 20260504035048 | 13 | 325 | 4.8 | 11.3 | 0.00 | 0.00 | 0.03 | 1005.8 | |
| 20260504034937 | 13 | 325 | 4.8 | 11.3 | 0.00 | 0.00 | 0.03 | 1005.8 | |
| 20260504034442 | 13 | 335 | 4.8 | 9.7 | 0.00 | 0.00 | 0.03 | 1005.8 | |
| 20260504033935 | 13 | 335 | 4.8 | 9.7 | 0.00 | 0.00 | 0.03 | 1005.8 | |
| 20260504033448 | 13 | 333 | 4.8 | 9.7 | 0.00 | 0.00 | 0.03 | 1005.8 | |
| 20260504033442 | 13 | 330 | 4.8 | 9.7 | 0.00 | 0.00 | 0.03 | 1005.8 | |
| 20260504032934 | 13 | 330 | 4.8 | 9.7 | 0.00 | 0.00 | 0.03 | 1005.8 | |
| 20260504032304 | 13 | 326 | 6.4 | 8.0 | 0.00 | 0.00 | 0.03 | 1005.8 | |
| 20260504032020 | 13 | 326 | 6.4 | 8.0 | 0.00 | 0.00 | 0.03 | 1005.8 | |
| 20260504031935 | 13 | 326 | 6.4 | 8.0 | 0.00 | 0.00 | 0.03 | 1005.8 | |
| 20260504031447 | 13 | 325 | 4.8 | 6.4 | 0.00 | 0.00 | 0.03 | 1005.8 | |
| 20260504031438 | 13 | 325 | 4.8 | 6.4 | 0.00 | 0.00 | 0.03 | 1005.8 | |
| 20260504030934 | 13 | 325 | 4.8 | 6.4 | 0.00 | 0.00 | 0.03 | 1005.8 | |
| 20260504030438 | 14 | 329 | 4.8 | 9.7 | 0.00 | 0.00 | 0.03 | 1005.8 | |
| 20260504025936 | 14 | 329 | 4.8 | 9.7 | 0.00 | 0.00 | 0.03 | 1005.8 | |
| 20260504025447 | 14 | 322 | 6.4 | 9.7 | 0.00 | 0.00 | 0.03 | 1005.8 | |
| 20260504025029 | 14 | 325 | 4.8 | 8.0 | 0.00 | 0.00 | 0.03 | 1005.8 | |
| 20260504024935 | 14 | 325 | 4.8 | 8.0 | 0.00 | 0.00 | 0.03 | 1005.8 | |
| 20260504024436 | 14 | 326 | 4.8 | 8.0 | 0.00 | 0.00 | 0.03 | 1005.8 | |
| 20260504024101 | 14 | 326 | 4.8 | 8.0 | 0.00 | 0.00 | 0.03 | 1005.8 | |
| 20260504023935 | 14 | 326 | 4.8 | 8.0 | 0.00 | 0.00 | 0.03 | 1005.8 | |
| 20260504023448 | 14 | 328 | 4.8 | 9.7 | 0.00 | 0.00 | 0.03 | 1005.8 | |
| 20260504023337 | 15 | 325 | 4.8 | 9.7 | 0.00 | 0.00 | 0.03 | 1005.8 | |
| 20260504023214 | 15 | 325 | 4.8 | 9.7 | 0.00 | 0.00 | 0.03 | 1005.8 | |
| 20260504022935 | 15 | 325 | 4.8 | 9.7 | 0.00 | 0.00 | 0.03 | 1005.8 | |
| 20260504022255 | 15 | 325 | 4.8 | 8.0 | 0.00 | 0.00 | 0.03 | 1005.8 | |
| 20260504021935 | 15 | 325 | 4.8 | 8.0 | 0.00 | 0.00 | 0.03 | 1005.8 | |
| 20260504021534 | 15 | 323 | 4.8 | 9.7 | 0.00 | 0.00 | 0.03 | 1005.8 | |
| 20260504021448 | 15 | 321 | 3.2 | 8.0 | 0.00 | 0.00 | 0.03 | 1005.8 | |
| 20260504020937 | 15 | 323 | 4.8 | 9.7 | 0.00 | 0.00 | 0.03 | 1005.8 | |
| 20260504020434 | 16 | 329 | 3.2 | 9.7 | 0.00 | 0.00 | 0.03 | 1005.5 | |
| 20260504015936 | 16 | 329 | 3.2 | 9.7 | 0.00 | 0.00 | 0.03 | 1005.5 | |
| 20260504015448 | 16 | 326 | 4.8 | 9.7 | 0.00 | 0.00 | 0.03 | 1005.5 | |
| 20260504015144 | 16 | 332 | 8.0 | 11.3 | 0.00 | 0.00 | 0.03 | 1005.5 | |
| 20260504014936 | 16 | 332 | 8.0 | 11.3 | 0.00 | 0.00 | 0.03 | 1005.5 | |
| 20260504014433 | 16 | 332 | 6.4 | 11.3 | 0.00 | 0.00 | 0.03 | 1005.5 | |
| 20260504013936 | 16 | 332 | 6.4 | 11.3 | 0.00 | 0.00 | 0.03 | 1005.5 | |
| 20260504013447 | 16 | 325 | 4.8 | 8.0 | 0.00 | 0.00 | 0.03 | 1005.5 | |
| 20260504013431 | 16 | 321 | 3.2 | 12.9 | 0.00 | 0.00 | 0.03 | 1005.5 | |
| 20260504012938 | 16 | 321 | 3.2 | 12.9 | 0.00 | 0.00 | 0.03 | 1005.5 | |
| 20260504012249 | 17 | 325 | 3.2 | 16.1 | 0.00 | 0.00 | 0.03 | 1005.5 | |
| 20260504011938 | 17 | 325 | 3.2 | 16.1 | 0.00 | 0.00 | 0.03 | 1005.5 | |
| 20260504011533 | 17 | 8 | 4.8 | 17.7 | 0.00 | 0.00 | 0.03 | 1005.5 | |
| 20260504011447 | 17 | 13 | 11.3 | 16.1 | 0.00 | 0.00 | 0.03 | 1005.5 | |
| 20260504011431 | 17 | 8 | 4.8 | 17.7 | 0.00 | 0.00 | 0.03 | 1005.5 | |
| 20260504010936 | 17 | 8 | 4.8 | 17.7 | 0.00 | 0.00 | 0.03 | 1005.5 | |
| 20260504010211 | 17 | 17 | 6.4 | 16.1 | 0.00 | 0.00 | 0.03 | 1005.5 | |
| 20260504005936 | 17 | 17 | 6.4 | 16.1 | 0.00 | 0.00 | 0.03 | 1005.5 | |
| 20260504005447 | 18 | 15 | 6.4 | 16.1 | 0.00 | 0.00 | 0.03 | 1005.5 | |
| 20260504005304 | 18 | 308 | 6.4 | 19.3 | 0.00 | 0.00 | 0.03 | 1005.1 | |
| 20260504004213 | 18 | 4 | 11.3 | 22.5 | 0.00 | 0.00 | 0.03 | 1005.1 | |
| 20260504003938 | 18 | 4 | 11.3 | 22.5 | 0.00 | 0.00 | 0.03 | 1005.1 | |
| 20260504003532 | 19 | 7 | 8.0 | 22.5 | 0.00 | 0.00 | 0.03 | 1005.1 | |
| 20260504003447 | 18 | 6 | 6.4 | 22.5 | 0.00 | 0.00 | 0.03 | 1005.1 | |
| 20260504002939 | 19 | 7 | 8.0 | 22.5 | 0.00 | 0.00 | 0.03 | 1005.1 | |
| 20260504001447 | 19 | 325 | 9.7 | 16.1 | 0.00 | 0.00 | 0.03 | 1004.8 | |
| 20260504000939 | 20 | 359 | 6.4 | 16.1 | 0.00 | 0.00 | 0.03 | 1004.8 | |
| 20260503235446 | 20 | 350 | 3.2 | 14.5 | 0.00 | 0.00 | 0.03 | 1004.8 | |
| 20260503233448 | 22 | 314 | 8.0 | 17.7 | 0.00 | 0.00 | 0.03 | 1004.8 | |
| 20260503231446 | 21 | 325 | 4.8 | 14.5 | 0.00 | 0.00 | 0.03 | 1004.8 | |
| 20260503225446 | 21 | 345 | 11.3 | 20.9 | 0.00 | 0.00 | 0.03 | 1004.8 | |
| 20260503223445 | 21 | 333 | 3.2 | 19.3 | 0.00 | 0.00 | 0.03 | 1004.8 | |
| 20260503221447 | 21 | 309 | 6.4 | 25.7 | 0.00 | 0.00 | 0.03 | 1004.8 | |
| 20260503215447 | 21 | 323 | 8.0 | 22.5 | 0.00 | 0.00 | 0.03 | 1004.8 | |
| 20260503214712 | 20 | 330 | 11.3 | 32.2 | 0.00 | 0.00 | 0.03 | 1004.8 | |
| 20260503213529 | 20 | 329 | 8.0 | 25.7 | 0.00 | 0.00 | 0.03 | 1005.1 | |
| 20260503213446 | 21 | 316 | 11.3 | 25.7 | 0.00 | 0.00 | 0.03 | 1004.8 | |
| 20260503212937 | 20 | 329 | 8.0 | 25.7 | 0.00 | 0.00 | 0.03 | 1005.1 | |
| 20260503212244 | 20 | 1 | 8.0 | 25.7 | 0.00 | 0.00 | 0.03 | 1005.1 | |
| 20260503211937 | 20 | 1 | 8.0 | 25.7 | 0.00 | 0.00 | 0.03 | 1005.1 | |
| 20260503211802 | 20 | 3 | 12.9 | 25.7 | 0.00 | 0.00 | 0.03 | 1005.1 | |
| 20260503211711 | 20 | 10 | 9.7 | 25.7 | 0.00 | 0.00 | 0.03 | 1005.1 | |
| 20260503210937 | 20 | 10 | 9.7 | 25.7 | 0.00 | 0.00 | 0.03 | 1005.1 | |
| 20260503210411 | 20 | 357 | 16.1 | 24.1 | 0.00 | 0.00 | 0.03 | 1005.1 | |
| 20260503205936 | 20 | 357 | 16.1 | 24.1 | 0.00 | 0.00 | 0.03 | 1005.1 | |
| 20260503205804 | 20 | 347 | 4.8 | 24.1 | 0.00 | 0.00 | 0.03 | 1005.1 | |
| 20260503205529 | 20 | 325 | 11.3 | 29.0 | 0.00 | 0.00 | 0.03 | 1005.5 | |
| 20260503204939 | 20 | 325 | 11.3 | 29.0 | 0.00 | 0.00 | 0.03 | 1005.5 | |
| 20260503204529 | 20 | 325 | 9.7 | 24.1 | 0.00 | 0.00 | 0.03 | 1005.5 | |
| 20260503203936 | 20 | 325 | 9.7 | 24.1 | 0.00 | 0.00 | 0.03 | 1005.5 | |
| 20260503203804 | 20 | 322 | 12.9 | 24.1 | 0.00 | 0.00 | 0.03 | 1005.5 | |
| 20260503202239 | 20 | 333 | 19.3 | 27.4 | 0.00 | 0.00 | 0.03 | 1005.8 | |
| 20260503201936 | 20 | 333 | 19.3 | 27.4 | 0.00 | 0.00 | 0.03 | 1005.8 | |
| 20260503201804 | 20 | 302 | 8.0 | 25.7 | 0.00 | 0.00 | 0.03 | 1005.8 | |
| 20260503201710 | 19 | 336 | 14.5 | 29.0 | 0.00 | 0.00 | 0.03 | 1005.8 | |
| 20260503200936 | 19 | 336 | 14.5 | 29.0 | 0.00 | 0.00 | 0.03 | 1005.8 | |
| 20260503200528 | 19 | 319 | 19.3 | 38.6 | 0.00 | 0.00 | 0.03 | 1005.8 | |
| 20260503195936 | 19 | 319 | 19.3 | 38.6 | 0.00 | 0.00 | 0.03 | 1005.8 | |
| 20260503195803 | 19 | 325 | 17.7 | 33.8 | 0.00 | 0.00 | 0.03 | 1005.8 | |
| 20260503195241 | 18 | 11 | 14.5 | 32.2 | 0.00 | 0.00 | 0.03 | 1006.1 | |
| 20260503194938 | 18 | 11 | 14.5 | 32.2 | 0.00 | 0.00 | 0.03 | 1006.1 | |
| 20260503194710 | 18 | 339 | 19.3 | 30.6 | 0.00 | 0.00 | 0.03 | 1006.1 | |
| 20260503193938 | 18 | 339 | 19.3 | 30.6 | 0.00 | 0.00 | 0.03 | 1006.1 | |
| 20260503193803 | 18 | 314 | 9.7 | 27.4 | 0.00 | 0.00 | 0.03 | 1006.5 | |
| 20260503193527 | 18 | 335 | 12.9 | 37.0 | 0.00 | 0.00 | 0.03 | 1006.5 | |
| 20260503192938 | 18 | 335 | 12.9 | 37.0 | 0.00 | 0.00 | 0.03 | 1006.5 | |
| 20260503192238 | 18 | 321 | 17.7 | 33.8 | 0.00 | 0.00 | 0.03 | 1006.8 | |
| 20260503191937 | 18 | 321 | 17.7 | 33.8 | 0.00 | 0.00 | 0.03 | 1006.8 | |
| 20260503191803 | 18 | 347 | 17.7 | 33.8 | 0.00 | 0.00 | 0.03 | 1006.8 | |
| 20260503191715 | 18 | 318 | 11.3 | 40.2 | 0.00 | 0.00 | 0.03 | 1006.8 | |
| 20260503190937 | 18 | 318 | 11.3 | 40.2 | 0.00 | 0.00 | 0.03 | 1006.8 | |
| 20260503190402 | 18 | 3 | 9.7 | 35.4 | 0.00 | 0.00 | 0.03 | 1006.8 | |
| 20260503185937 | 18 | 3 | 9.7 | 35.4 | 0.00 | 0.00 | 0.03 | 1006.8 | |
| 20260503185803 | 18 | 4 | 14.5 | 35.4 | 0.00 | 0.00 | 0.03 | 1006.8 | |
| 20260503185400 | 17 | 335 | 17.7 | 32.2 | 0.00 | 0.00 | 0.03 | 1006.8 | |
| 20260503184937 | 17 | 335 | 17.7 | 32.2 | 0.00 | 0.00 | 0.03 | 1006.8 | |
| 20260503184710 | 17 | 332 | 22.5 | 30.6 | 0.00 | 0.00 | 0.03 | 1006.8 | |
| 20260503183937 | 17 | 332 | 22.5 | 30.6 | 0.00 | 0.00 | 0.03 | 1006.8 | |
| 20260503183802 | 17 | 6 | 17.7 | 30.6 | 0.00 | 0.00 | 0.03 | 1006.8 | |
| 20260503183641 | 17 | 326 | 12.9 | 41.8 | 0.00 | 0.00 | 0.03 | 1006.8 | |
| 20260503182937 | 17 | 326 | 12.9 | 41.8 | 0.00 | 0.00 | 0.03 | 1006.8 | |
| 20260503182200 | 17 | 345 | 16.1 | 35.4 | 0.00 | 0.00 | 0.03 | 1007.2 | |
| 20260503181938 | 17 | 345 | 16.1 | 35.4 | 0.00 | 0.00 | 0.03 | 1007.2 | |
| 20260503181802 | 17 | 14 | 16.1 | 35.4 | 0.00 | 0.00 | 0.03 | 1007.2 | |
| 20260503181715 | 16 | 318 | 16.1 | 41.8 | 0.00 | 0.00 | 0.03 | 1007.2 | |
| 20260503180711 | 17 | 321 | 17.7 | 35.4 | 0.00 | 0.00 | 0.03 | 1007.5 | |
| 20260503175937 | 17 | 321 | 17.7 | 35.4 | 0.00 | 0.00 | 0.03 | 1007.5 | |
| 20260503175804 | 17 | 328 | 14.5 | 35.4 | 0.00 | 0.00 | 0.03 | 1007.5 | |
| 20260503175356 | 17 | 15 | 16.1 | 35.4 | 0.00 | 0.00 | 0.03 | 1007.5 | |
| 20260503174938 | 17 | 15 | 16.1 | 35.4 | 0.00 | 0.00 | 0.03 | 1007.5 | |
| 20260503174526 | 16 | 333 | 16.1 | 33.8 | 0.00 | 0.00 | 0.03 | 1007.5 | |
| 20260503173936 | 16 | 333 | 16.1 | 33.8 | 0.00 | 0.00 | 0.03 | 1007.5 | |
| 20260503173804 | 16 | 328 | 19.3 | 33.8 | 0.00 | 0.00 | 0.03 | 1007.5 | |
| 20260503173642 | 17 | 314 | 16.1 | 41.8 | 0.00 | 0.00 | 0.03 | 1007.5 | |
| 20260503172936 | 17 | 314 | 16.1 | 41.8 | 0.00 | 0.00 | 0.03 | 1007.5 | |
| 20260503172238 | 16 | 347 | 17.7 | 35.4 | 0.00 | 0.00 | 0.03 | 1007.5 | |
| 20260503171936 | 16 | 347 | 17.7 | 35.4 | 0.00 | 0.00 | 0.03 | 1007.5 | |
| 20260503171804 | 16 | 323 | 16.1 | 35.4 | 0.00 | 0.00 | 0.03 | 1007.5 | |
| 20260503170936 | 16 | 357 | 20.9 | 37.0 | 0.00 | 0.00 | 0.03 | 1007.5 | |
| 20260503170711 | 16 | 347 | 19.3 | 41.8 | 0.00 | 0.00 | 0.03 | 1007.8 | |
| 20260503150937 | 15 | 305 | 19.3 | 37.0 | 0.00 | 0.00 | 0.03 | 1008.8 | |
| 20260503150343 | 13 | 338 | 20.9 | 33.8 | 0.00 | 0.00 | 0.03 | 1009.2 | |
| 20260503150152 | 13 | 338 | 20.9 | 33.8 | 0.00 | 0.00 | 0.03 | 1009.2 | |
| 20260503131021 | 8 | 319 | 12.9 | 27.4 | 0.00 | 0.00 | 0.03 | 1010.9 | |
| 20260503130935 | 8 | 319 | 12.9 | 27.4 | 0.00 | 0.00 | 0.03 | 1010.9 | |
| 20260503120121 | 8 | 326 | 14.5 | 27.4 | 0.00 | 0.00 | 0.00 | 1011.9 | |
| 20260503100112 | 7 | 332 | 17.7 | 27.4 | 0.00 | 0.00 | 0.00 | 1011.6 | |
| 20260503080937 | 8 | 333 | 14.5 | 27.4 | 0.00 | 0.00 | 0.00 | 1012.2 | |
| 20260503080103 | 7 | 339 | 16.1 | 27.4 | 0.00 | 0.00 | 0.00 | 1012.6 | |
| 20260503072936 | 7 | 333 | 16.1 | 27.4 | 0.00 | 0.00 | 0.00 | 1012.6 | |
| 20260503071936 | 7 | 335 | 14.5 | 24.1 | 0.00 | 0.00 | 0.00 | 1012.6 | |
| 20260503071804 | 7 | 333 | 12.9 | 24.1 | 0.00 | 0.00 | 0.00 | 1012.6 | |
| 20260503070936 | 7 | 328 | 14.5 | 27.4 | 0.00 | 0.00 | 0.00 | 1012.6 | |
| 20260503070106 | 7 | 325 | 16.1 | 24.1 | 0.00 | 0.00 | 0.00 | 1012.9 | |
| 20260503054937 | 7 | 318 | 14.5 | 25.7 | 0.00 | 0.00 | 0.00 | 1013.2 | |
| 20260503054148 | 7 | 315 | 12.9 | 22.5 | 0.00 | 0.00 | 0.00 | 1013.6 | |
| 20260503053935 | 7 | 315 | 12.9 | 22.5 | 0.00 | 0.00 | 0.00 | 1013.6 | |
| 20260503053803 | 7 | 311 | 12.9 | 24.1 | 0.00 | 0.00 | 0.00 | 1013.6 | |
| 20260503053108 | 7 | 326 | 16.1 | 24.1 | 0.00 | 0.00 | 0.00 | 1013.6 | |
| 20260503052935 | 7 | 326 | 16.1 | 24.1 | 0.00 | 0.00 | 0.00 | 1013.6 | |
| 20260503052021 | 7 | 318 | 12.9 | 24.1 | 0.00 | 0.00 | 0.00 | 1013.6 | |
| 20260503051935 | 7 | 318 | 12.9 | 24.1 | 0.00 | 0.00 | 0.00 | 1013.6 | |
| 20260503051802 | 7 | 311 | 12.9 | 24.1 | 0.00 | 0.00 | 0.00 | 1013.6 | |
| 20260503051251 | 7 | 319 | 14.5 | 25.7 | 0.00 | 0.00 | 0.00 | 1013.6 | |
| 20260503050935 | 7 | 319 | 14.5 | 25.7 | 0.00 | 0.00 | 0.00 | 1013.6 | |
| 20260503050058 | 7 | 312 | 12.9 | 22.5 | 0.00 | 0.00 | 0.00 | 1013.6 | |
| 20260503045935 | 7 | 312 | 12.9 | 22.5 | 0.00 | 0.00 | 0.00 | 1013.6 | |
| 20260503045802 | 7 | 314 | 14.5 | 22.5 | 0.00 | 0.00 | 0.00 | 1013.6 | |
| 20260503045019 | 7 | 323 | 14.5 | 24.1 | 0.00 | 0.00 | 0.00 | 1013.6 | |
| 20260503044935 | 7 | 323 | 14.5 | 24.1 | 0.00 | 0.00 | 0.00 | 1013.6 | |
| 20260503044101 | 7 | 322 | 12.9 | 20.9 | 0.00 | 0.00 | 0.00 | 1013.6 | |
| 20260503043935 | 7 | 322 | 12.9 | 20.9 | 0.00 | 0.00 | 0.00 | 1013.6 | |
| 20260503043804 | 7 | 323 | 11.3 | 20.9 | 0.00 | 0.00 | 0.00 | 1013.6 | |
| 20260503043057 | 7 | 309 | 11.3 | 20.9 | 0.00 | 0.00 | 0.00 | 1013.6 | |
| 20260503042935 | 7 | 309 | 11.3 | 20.9 | 0.00 | 0.00 | 0.00 | 1013.6 | |
| 20260503042021 | 7 | 315 | 11.3 | 19.3 | 0.00 | 0.00 | 0.00 | 1013.9 | |
| 20260503041935 | 7 | 315 | 11.3 | 19.3 | 0.00 | 0.00 | 0.00 | 1013.9 | |
| 20260503041804 | 7 | 312 | 12.9 | 19.3 | 0.00 | 0.00 | 0.00 | 1013.9 | |
| 20260503041108 | 7 | 322 | 12.9 | 20.9 | 0.00 | 0.00 | 0.00 | 1013.9 | |
| 20260503040934 | 7 | 322 | 12.9 | 20.9 | 0.00 | 0.00 | 0.00 | 1013.9 |